Home   Weather   Orange   Past weeks

Flag for USA Past Weather in Orange, California, USA — Yesterday and Last 2 Weeks

Now
63 °F

Clear.


Feels Like: 63 °F
Forecast: 59 / 78 °F
Wind: No wind

Location: John Wayne Airport-Orange County Airport

Current Time: Apr 23, 2017 at 5:24:47 am

Latest Report: Apr 23, 2017 at 4:53 am


Visibility: 10 mi

Pressure: 29.83 "Hg

Humidity: 81%

Dew Point: 57 °F

Location of OrangeLocation

Past Weather in Orange — Graph

°F

Orange Temperature Yesterday

Maximum temperature yesterday: 84 °F (at 1:53 pm)
Minimum temperature yesterday: 61 °F (at 5:53 am)
Average temperature yesterday: 71 °F

High & Low Weather Summary for the Past Weeks

 TemperatureHumidityPressure
High84 °F (Apr 22, 1:53 pm)97% (Apr 18, 11:07 pm)30.14 "Hg (Apr 18, 11:07 pm)
Low52 °F (Apr 10, 5:53 am)23% (Apr 21, 8:53 pm)29.81 "Hg (Apr 21, 6:53 pm)
Average64 °F67%30.01 "Hg
* Reported Apr 8 3:53 am — Apr 23 3:53 am, Orange, Weather by CustomWeather, © 2017

Note: Actual official high and low records may vary slightly from our data, if they occured in-between our weather recording intervals... More about our weather records

Advertising

Orange Weather History for the Previous 24 Hours

Scroll right to see more
 ConditionsComfort  
Time TempWeatherWind HumidityBarometerVisibility
3:53 am
Sun, Apr 23
63 °FClear.3 mph81%29.83 "Hg10 mi
2:53 am64 °FClear.No wind78%29.82 "Hg10 mi
1:53 am64 °FClear.5 mph75%29.85 "Hg10 mi
12:53 am64 °FClear.5 mph75%29.86 "Hg10 mi
11:53 pm
Sat, Apr 22
64 °FClear.3 mph78%29.85 "Hg10 mi
10:53 pm65 °FPassing clouds.8 mph81%29.84 "Hg9 mi
9:53 pm65 °FPassing clouds.6 mph76%29.85 "Hg10 mi
8:53 pm68 °FClear.5 mph65%29.84 "Hg10 mi
7:53 pm69 °FPassing clouds.5 mph63%29.83 "Hg10 mi
6:53 pm71 °FPassing clouds.7 mph57%29.83 "Hg10 mi
5:53 pm76 °FScattered clouds.9 mph39%29.83 "Hg10 mi
4:53 pm79 °FScattered clouds.7 mph39%29.83 "Hg10 mi
3:53 pm79 °FScattered clouds.8 mph42%29.83 "Hg10 mi
2:53 pm80 °FScattered clouds.12 mph35%29.84 "Hg10 mi
1:53 pm84 °FPassing clouds.9 mph29%29.84 "Hg10 mi
12:53 pm83 °FPassing clouds.9 mph36%29.85 "Hg10 mi
11:53 am81 °FPassing clouds.6 mph38%29.87 "Hg10 mi
10:53 am78 °FScattered clouds.7 mph43%29.89 "Hg10 mi
9:53 am75 °FPassing clouds.3 mph47%29.89 "Hg10 mi
8:53 am71 °FPassing clouds.3 mph55%29.89 "Hg10 mi
7:53 am66 °FPassing clouds.No wind68%29.89 "Hg10 mi
6:53 am62 °FPassing clouds.No wind78%29.88 "Hg10 mi
5:53 am61 °FPassing clouds.No wind81%29.86 "Hg10 mi
Weather by CustomWeather, © 2017

See weather overviewHow to use our weather pages